Location: Banios
(43.0451°N, 0.2335°E)
Time: 13:52:16
(UTC+00:00)

A-11 Canister half - Pass Details

Date: 12 May 2021
Orbit: 1513 x 1686 km, 47.2° (Epoch: 14 June)

Event Time Altitude Azimuth Distance (km) Brightness Sun altitude
Rises 17:53:09 0° 276° (W) 4,656 13.5 12.8°
Reaches altitude 10° 17:56:13 10° 279° (W) 3,673 14.2 12.3°
Maximum altitude 18:05:26 69° 3° (N) 1,618 9.4 10.6°
Drops below altitude 10° 18:14:50 10° 86° (E) 3,742 10.5 9.0°
Sets 18:17:59 0° 89° (E) 4,747 11.0 8.4°
